When you browse on this site, cookies collect data to enhance your experience and personalize the content and advertising you see.
Visit our Privacy Policy to learn more. By continuing to use the site, you agree to this use of cookies and data.
  • In Hungary
  • List of Countries
  • For 7 days
  • Water Temperature
  • Weather Map
  • News
  • Weather Widgets
  • user-avatar
    Login

    Hourly Weather Pereslovo

    Today, 16 December, Monday

    Time Temperature Precipitation Wind Pressure Humidity
    00:00 0°C° 0 mm 5 mps 740 mmHg 90%
    01:00 0°C° 0 mm 5 mps 740 mmHg 92%
    02:00 +1°C° 0 mm 6 mps 739 mmHg 95%
    03:00 +1°C° 0 mm 6 mps 739 mmHg 92%
    04:00 +1°C° 0 mm 6 mps 739 mmHg 89%
    05:00 +1°C° 0 mm 6 mps 739 mmHg 86%
    06:00 +1°C° 0.1 mm 6 mps 739 mmHg 84%
    07:00 0°C° 0.1 mm 7 mps 739 mmHg 83%
    08:00 0°C° 0.1 mm 8 mps 739 mmHg 82%
    09:00 +1°C° 0.4 mm 8 mps 739 mmHg 82%
    10:00 +1°C° 0.4 mm 9 mps 740 mmHg 82%
    11:00 +1°C° 0.4 mm 9 mps 740 mmHg 83%
    12:00 +1°C° 0 mm 9 mps 741 mmHg 78%
    13:00 +1°C° 0 mm 8 mps 742 mmHg 73%
    14:00 +2°C° 0 mm 8 mps 743 mmHg 68%
    15:00 +2°C° 0 mm 7 mps 744 mmHg 72%
    16:00 +2°C° 0 mm 6 mps 744 mmHg 76%
    17:00 +2°C° 0 mm 5 mps 745 mmHg 80%
    18:00 +1°C° 0 mm 5 mps 746 mmHg 83%
    19:00 +1°C° 0 mm 5 mps 746 mmHg 86%
    20:00 +1°C° 0 mm 4 mps 746 mmHg 88%
    21:00 +1°C° 0 mm 4 mps 747 mmHg 90%
    22:00 0°C° 0 mm 4 mps 747 mmHg 91%
    23:00 0°C° 0 mm 4 mps 747 mmHg 93%

    Tomorrow, 17 December, Tuesday

    Time Temperature Precipitation Wind Pressure Humidity
    00:00 -1°C° 0 mm 4 mps 747 mmHg 93%
    01:00 -1°C° 0 mm 4 mps 747 mmHg 93%
    02:00 -1°C° 0 mm 4 mps 747 mmHg 93%
    03:00 0°C° 0 mm 4 mps 747 mmHg 91%
    04:00 0°C° 0 mm 4 mps 746 mmHg 89%
    05:00 +1°C° 0 mm 4 mps 746 mmHg 87%
    06:00 +1°C° 0.1 mm 4 mps 746 mmHg 88%
    07:00 +1°C° 0.1 mm 4 mps 746 mmHg 89%
    08:00 +2°C° 0.1 mm 3 mps 745 mmHg 90%
    09:00 +2°C° 0.2 mm 3 mps 745 mmHg 92%
    10:00 +2°C° 0.2 mm 3 mps 746 mmHg 94%
    11:00 +2°C° 0.2 mm 3 mps 746 mmHg 95%
    12:00 +2°C° 0.2 mm 3 mps 746 mmHg 96%
    13:00 +4°C° 0.2 mm 2 mps 746 mmHg 96%
    14:00 +4°C° 0.2 mm 2 mps 746 mmHg 96%
    15:00 +4°C° 0 mm 2 mps 746 mmHg 96%
    16:00 +4°C° 0 mm 2 mps 746 mmHg 96%
    17:00 +5°C° 0 mm 1 mps 746 mmHg 97%
    18:00 +5°C° 0.1 mm 1 mps 746 mmHg 97%
    19:00 +5°C° 0.1 mm 1 mps 746 mmHg 97%
    20:00 +4°C° 0.1 mm 2 mps 746 mmHg 97%
    21:00 +4°C° 0 mm 2 mps 746 mmHg 97%
    22:00 +4°C° 0 mm 2 mps 746 mmHg 97%
    23:00 +4°C° 0 mm 2 mps 747 mmHg 97%

    Day after tomorrow, 18 December, Wednesday

    Time Temperature Precipitation Wind Pressure Humidity
    00:00 +4°C° 0 mm 2 mps 746 mmHg 96%
    01:00 +4°C° 0 mm 2 mps 746 mmHg 96%
    02:00 +3°C° 0 mm 3 mps 746 mmHg 95%
    03:00 +3°C° 0 mm 3 mps 746 mmHg 95%
    04:00 +3°C° 0 mm 3 mps 745 mmHg 94%
    05:00 +3°C° 0 mm 4 mps 745 mmHg 93%
    06:00 +3°C° 0 mm 4 mps 745 mmHg 93%
    07:00 +3°C° 0 mm 3 mps 745 mmHg 92%
    08:00 +3°C° 0 mm 3 mps 744 mmHg 92%
    09:00 +3°C° 0 mm 4 mps 744 mmHg 91%
    10:00 +4°C° 0 mm 4 mps 744 mmHg 90%
    11:00 +4°C° 0 mm 4 mps 744 mmHg 88%
    12:00 +4°C° 0 mm 4 mps 744 mmHg 88%
    13:00 +5°C° 0 mm 4 mps 743 mmHg 88%
    14:00 +5°C° 0 mm 4 mps 743 mmHg 88%
    15:00 +5°C° 0 mm 4 mps 743 mmHg 89%
    16:00 +5°C° 0 mm 5 mps 743 mmHg 89%
    17:00 +5°C° 0 mm 5 mps 743 mmHg 90%
    18:00 +4°C° 0 mm 6 mps 744 mmHg 88%
    19:00 +4°C° 0 mm 6 mps 744 mmHg 85%
    20:00 +4°C° 0 mm 6 mps 745 mmHg 83%
    21:00 +3°C° 0 mm 6 mps 745 mmHg 82%
    22:00 +3°C° 0 mm 6 mps 745 mmHg 81%
    23:00 +2°C° 0 mm 6 mps 746 mmHg 80%

    19 December, Thursday

    Time Temperature Precipitation Wind Pressure Humidity
    00:00 +2°C° 0 mm 6 mps 746 mmHg 79%
    01:00 +2°C° 0 mm 6 mps 747 mmHg 78%
    02:00 +2°C° 0 mm 6 mps 747 mmHg 77%
    03:00 +2°C° 0 mm 6 mps 747 mmHg 78%
    04:00 +2°C° 0 mm 6 mps 748 mmHg 79%
    05:00 +2°C° 0 mm 6 mps 748 mmHg 79%
    06:00 +2°C° 0 mm 6 mps 748 mmHg 80%
    07:00 +2°C° 0 mm 5 mps 749 mmHg 81%
    08:00 +2°C° 0 mm 5 mps 749 mmHg 81%
    09:00 +2°C° 0 mm 5 mps 750 mmHg 80%
    10:00 +2°C° 0 mm 5 mps 750 mmHg 79%
    11:00 +2°C° 0 mm 5 mps 751 mmHg 77%
    12:00 +3°C° 0 mm 4 mps 751 mmHg 78%
    13:00 +3°C° 0 mm 4 mps 752 mmHg 79%
    14:00 +3°C° 0 mm 4 mps 752 mmHg 80%
    15:00 +2°C° 0 mm 3 mps 752 mmHg 84%
    16:00 +1°C° 0 mm 3 mps 753 mmHg 89%
    17:00 +1°C° 0 mm 2 mps 753 mmHg 93%
    18:00 +1°C° 0 mm 2 mps 753 mmHg 94%
    19:00 -1°C° 0 mm 2 mps 753 mmHg 95%
    20:00 -1°C° 0 mm 2 mps 754 mmHg 95%
    21:00 -1°C° 0 mm 2 mps 754 mmHg 96%
    22:00 -1°C° 0 mm 2 mps 754 mmHg 96%
    23:00 -1°C° 0 mm 2 mps 754 mmHg 96%

    20 December, Friday

    Time Temperature Precipitation Wind Pressure Humidity
    00:00 +1°C° 0 mm 1 mps 754 mmHg 95%
    01:00 +1°C° 0 mm 1 mps 754 mmHg 93%
    02:00 0°C° 0 mm 0 mps 754 mmHg 92%
    03:00 +1°C° 0 mm 1 mps 754 mmHg 91%
    04:00 +1°C° 0 mm 1 mps 754 mmHg 90%
    05:00 +1°C° 0 mm 1 mps 754 mmHg 89%
    06:00 +1°C° 0 mm 1 mps 753 mmHg 89%
    07:00 -2°C° 0 mm 2 mps 753 mmHg 89%
    08:00 -2°C° 0 mm 2 mps 753 mmHg 89%
    09:00 -1°C° 0 mm 2 mps 753 mmHg 85%
    10:00 -1°C° 0 mm 2 mps 753 mmHg 81%
    11:00 0°C° 0 mm 3 mps 753 mmHg 77%
    12:00 0°C° 0 mm 3 mps 753 mmHg 75%
    13:00 0°C° 0 mm 3 mps 752 mmHg 74%
    14:00 +1°C° 0 mm 3 mps 752 mmHg 72%
    15:00 0°C° 0 mm 3 mps 751 mmHg 72%
    16:00 -1°C° 0 mm 4 mps 751 mmHg 73%
    17:00 -1°C° 0 mm 4 mps 751 mmHg 73%
    18:00 -1°C° 0 mm 4 mps 750 mmHg 70%
    19:00 -1°C° 0 mm 4 mps 750 mmHg 68%
    20:00 -1°C° 0 mm 4 mps 750 mmHg 66%
    21:00 -1°C° 0 mm 4 mps 749 mmHg 64%
    22:00 -1°C° 0 mm 5 mps 749 mmHg 62%
    23:00 -1°C° 0 mm 5 mps 749 mmHg 60%

    21 December, Saturday

    Time Temperature Precipitation Wind Pressure Humidity
    00:00 -1°C° 0 mm 5 mps 749 mmHg 59%
    01:00 -1°C° 0 mm 5 mps 748 mmHg 58%
    02:00 -1°C° 0 mm 5 mps 748 mmHg 58%
    03:00 -1°C° 0 mm 4 mps 747 mmHg 58%
    04:00 -1°C° 0 mm 4 mps 747 mmHg 59%
    05:00 -1°C° 0 mm 4 mps 747 mmHg 59%
    06:00 -1°C° 0 mm 4 mps 747 mmHg 60%
    07:00 -1°C° 0 mm 5 mps 746 mmHg 60%
    08:00 -1°C° 0 mm 5 mps 746 mmHg 61%
    09:00 -1°C° 0 mm 5 mps 746 mmHg 63%
    10:00 -1°C° 0 mm 5 mps 746 mmHg 65%
    11:00 -1°C° 0 mm 5 mps 746 mmHg 67%
    12:00 -1°C° 0 mm 5 mps 746 mmHg 69%
    13:00 0°C° 0 mm 4 mps 746 mmHg 72%
    14:00 0°C° 0 mm 4 mps 745 mmHg 74%
    15:00 0°C° 0 mm 4 mps 745 mmHg 76%
    16:00 0°C° 0 mm 4 mps 745 mmHg 77%
    17:00 -1°C° 0 mm 5 mps 745 mmHg 79%
    18:00 -1°C° 0 mm 5 mps 745 mmHg 81%
    19:00 -1°C° 0 mm 4 mps 745 mmHg 84%
    20:00 -1°C° 0 mm 4 mps 745 mmHg 86%
    21:00 -1°C° 0 mm 4 mps 745 mmHg 88%
    22:00 0°C° 0 mm 4 mps 745 mmHg 91%
    23:00 0°C° 0 mm 4 mps 745 mmHg 93%
    Show more